{"data":{"norad_id":62848,"intl_designator":"2025-019V","name":"STARLINK-32781","alt_names":[],"object_type":"PAYLOAD","status":"ACTIVE","operator":null,"country":"US","launch_date":"2025-01-27","launch_site_code":"AFETR","launch_vehicle":null,"mission":null,"orbit_class":"UNKNOWN","rcs_meters":null,"size_class":null,"mass_kg":null,"dimensions":null,"purposes":["comms"],"wikipedia_slug":null,"has_3d_model":false,"image_url":null,"decayed_at":null,"tle_current":{"epoch":"2026-09-21T17:41:46.189824Z","epoch_age_seconds":61293,"freshness":"FRESH","line1":"1 62848U 25019V   26264.73734016  .00005959  00000+0  22582-3 0  9995","line2":"2 62848  43.0026  61.8297 0000736 287.7364  72.3407 15.27588047 92237","mean_motion":15.27588047,"eccentricity":7.36e-5,"inclination_deg":43.0026,"raan_deg":61.8297,"arg_perigee_deg":287.7364,"mean_anomaly_deg":72.3407,"bstar":0.00022582,"rev_number":9223,"period_min":94.26625213702,"perigee_km":482.5200190093,"apogee_km":483.52998205577,"semimajor_km":6861.1620005325,"source":"CELESTRAK","updated_at":"2026-09-22T09:00:49.675056Z"}}}